星链-31584 (STARLINK-31584 )

导读

STARLINK-31584是美国SpaceX公司于2024年5月24日发射的星链卫星,星链项目旨在打造全球低轨卫星互联网星座,为偏远、基础设施匮乏地区提供高速低延迟宽带网络服务。该卫星属于Starlink星座的最新批次,将进一步扩展星链全球覆盖范围,提升网络服务容量与稳定性,目前星链已在全球六十多个国家提供服务,推动全球互联网接入的普及与便捷性。

Basic Information
目录编号:
59862
目录名称:
STARLINK-31584
国际标识:
2024-098E
轨道中心:
EARTH
卫星名称:
星链-31584
卫星全名:
星链-31584 (STARLINK-31584 )
卫星状态:
在轨 (已飞行841 天)
发射日期:
2024-05-24 UTC
国别 :
美国 (US)
星等 :
--
This satellite is enrolled in the Space Conjunction Data Service (SCDS) and the current flight risk assessment level is: No High Risk
Orbit Information
数据来源 国际轨道数据 AOE轨道数据
星历时间 2026-09-11T21:20:17+0800
12小时前
查看轨道信息
2026-09-07T06:00:00+0800
5天前
查看轨道信息
半长轴 6861.179km 6861.185km
偏心率 0.0001168 0.0001342
轨道倾角 43.000° 43.002°
近地点辐角 207.995° 268.229°
升交点赤经 308.181° 334.388°
平近点角 152.084° 110.304°
近地点 482.24km 482.127km
远地点 483.844km 483.969km
周期 94.267分钟 94.267分钟
每日圈数 15.275826 15.275804
Detailed Information
固有亮度:
5
最大亮度:
1.5
卫星平台:
Starlink v2.0 mini
覆盖范围:
全球
运营商:
太空探索技术公司
运营商所在国:
美国
制造商(研发单位):
太空探索技术公司
制造商所在国:
美国
使用方式:
暂无
Satellite Introduction
星链(Starlink)计划是由太空探索技术公司(SpaceX)提出的一个巨型低轨卫星互联网星座项目,计划在2019年至2024年间在太空搭建由约1.2万颗卫星组成的“星链”网络,其中1584颗将部署在地球上空550千米处的近地轨道,并从2020年开始工作。该卫星仍在工作。
2D Orbit Map
3D Orbit Map
Orbit Altitude Analysis Chart
Orbit Inclination Analysis Chart
Orbit Comprehensive Analysis Chart
View Comprehensive Chart
Conjunction Data List
Event ID Objects TCA Miss Dist (km) Collision Risk Probability Collision Risk Index (CRI) Action
CDM_260913-185705-986206-745421
2026-09-13T
18:57:44+0000
0.312 km
远距离
3.234316E-4 高风险 0.85
CDM_260914-033505-986206-745421
2026-09-14T
03:35:34+0000
0.926 km
远距离
1.900607E-5 中风险 0.61
CDM_260913-043805-320205-986221
2026-09-13T
04:38:17+0000
1.436 km
极远距离
4.70437E-6 低风险 0.48
CDM_260913-203105-986206-745421
2026-09-13T
20:31:53+0000
2.686 km
极远距离
9.408555E-7 极低风险 0.34
Miss Distance Evolution Trend with All Objects
Collision Probability Evolution Trend with All Objects